Weather in Repnoe

Russia / Belgorod Oblast     50°31′53″N   36°30′01″E
temp.,
°C
wind,
m/s
gust,
m/s
humid.,
%
clouds,
%
prec.,
mm/h
press.,
hPa
HPBL,
m
27 october, wed
wed2700:00+2sw484542 0.0 1030130
03:00+1sw48465 0.0 1029137
06:000sw410505 0.0 1028175
09:00+2sw511530 0.0 1027304
12:00+8sw69400 0.0 1026727
15:00+10sw68300 0.0 1024990
18:00+5sw47463 0.0 1024106
21:00+5sw36666 0.0 1023100
28 october, thu
thu2800:00+5wsw3582100 0.0 102385
03:00+4w348884 0.0 102361
06:00+3wsw3588100 0.0 102278
09:00+5wsw4981100 0.0 1022263
12:00+8wsw61178100 0.2 1021425
15:00+8wsw61280100 0.6 1019536
18:00+9w51083100 0.1 1019457
21:00+8wnw4109387 0.2 1020371
29 october, fri
fri2900:00+7nw4109661 0.0 1021308
03:00+9n5883100 0.0 1022571
06:00+7nne5982100 0.0 1025609
09:00+8ne6768100 0.0 1027997
12:00+9ene556293 0.0 10291013
15:00+10ene346152 0.0 1030999
18:00+6e23725 0.0 103124
21:00+5e22773 0.0 103219
30 october, sat
sat3000:00+4ese22810 0.0 103323
03:00+3se22845 0.0 103413
06:00+2se22865 0.0 103415
09:00+4se24765 0.0 1035119
12:00+9sse45500 0.0 1035558
15:00+11sse34405 0.0 1034721
18:00+7sse33513 0.0 103419
21:00+5sse33590 0.0 103437
31 october, sun
sun3100:00+4s34650 0.0 103549
03:00+3sse33710 0.0 103443
06:00+2sse33750 0.0 103437
09:00+4sse36670 0.0 1034146
12:00+9sse45430 0.0 1033519
15:00+11sse34410 0.0 1031680
18:00+7se33560 0.0 103022
21:00+5se35610 0.0 103067